[[{"header":{"parameterUnit":"m.s-1","parameterCategory":1,"la1":30.2991,"la2":30.254,"lo1":-89.0895,"lo2":-89.0444,"dy":0.0017,"dx":0.0017,"nx":28,"ny":28,"refTime":"2023-10-25T21:00:00:Z","depth":0,"parameterNumber":2,"parameterNumberName":"U-component_of_WINDS"},"data":[0,0,0,0,0,0,0,0,0,0,0,0,0,0,0,0,0,0,0,0,0,0,0,0,0,0,0,0,0,0,0,0,0,0,0,0,0,0,0,0,0,0,0,0,0,0,0,0,0,0,0,0,0,0,0,0,0,0,-6.3757,-6.3758,0,-6.3818,-6.3819,-6.3819,-6.3708,-6.3705,-6.3701,-6.3698,-6.3758,-6.3763,-6.3768,0,0,0,0,0,0,0,0,0,0,0,0,0,-6.3545,-6.355,-6.3757,-6.3758,-6.3759,-6.3818,-6.3819,-6.3819,-6.3709,-6.3705,-6.37,-6.3696,-6.3756,-6.3762,-6.3768,0,0,0,0,0,0,0,0,0,0,0,0,0,-6.3625,-6.3551,-6.3757,-6.3711,-6.3707,-6.3818,-6.3819,-6.382,-6.371,-6.3704,-6.3699,-6.3694,-6.3754,-6.3762,-6.3769,-6.3927,0,0,-6.3792,-6.3796,0,0,0,0,0,0,0,0,-6.3621,-6.3633,-6.3717,-6.3714,-6.371,-6.375,-6.3766,-6.3855,-6.3711,-6.3709,-6.3697,-6.3691,-6.376,-6.3766,-6.379,-6.393,-6.3932,-6.3793,-6.3798,-6.3801,-6.3803,0,0,0,0,0,0,0,-6.3615,-6.363,-6.3781,-6.3718,-6.3714,-6.3687,-6.3692,-6.3782,-6.3764,-6.3709,-6.3701,-6.371,-6.3757,-6.3783,-6.3791,-6.3933,-6.3793,-6.3799,-6.3804,-6.3807,-6.4207,-6.4213,0,0,0,0,0,0,-6.3616,-6.3626,-6.3779,-6.3783,-6.3651,-6.3695,-6.3701,-6.3743,-6.3763,-6.3761,-6.3714,-6.3704,-6.3773,-6.3782,-6.3792,-6.3978,-6.3801,-6.3808,-6.3812,-6.4201,-6.4208,-6.4215,0,0,0,0,0,0,-6.3611,-6.363,-6.3776,-6.3702,-6.3719,-6.3705,-6.3753,-6.3747,-6.3773,-6.3768,-6.3764,-6.3744,-6.3769,-6.3782,-6.3895,-6.3978,-6.3811,-6.3818,-6.4194,-6.4203,-6.4212,-6.4351,0,0,0,0,0,0,-6.3606,-6.3629,-6.3689,-6.3704,-6.3723,-6.3878,-6.3758,-6.3752,-6.3786,-6.3774,-6.3794,-6.3793,-6.3765,-6.3884,-6.3902,-6.3986,-6.3824,-6.4186,-6.4198,-6.4209,-6.4339,-6.4364,-6.4385,0,0,0,0,0,-6.3599,-6.3725,-6.3692,-6.3711,-6.3797,-6.3883,-6.3894,-6.386,-6.3794,-6.3853,-6.385,-6.3792,-6.3968,-6.3896,-6.3916,-6.4003,-6.418,-6.4195,-6.4208,-6.4328,-6.4359,-6.4385,0,0,0,0,0,0,-6.3717,-6.3726,-6.369,-6.3825,-6.3855,-6.3864,-6.3938,-6.3893,-6.3941,-6.3928,-6.3884,-6.389,-6.4012,-6.4019,-6.394,-6.4158,-6.4063,-6.4081,-6.4148,-6.4177,-6.4199,-6.4194,-6.383,0,0,0,0,0,-6.376,-6.3829,-6.3833,-6.3952,-6.3969,-6.3952,-6.3988,-6.396,-6.3988,-6.4,-6.4005,-6.4034,-6.4096,-6.4137,-6.4194,-6.4341,-6.4344,-6.4411,-6.4434,-6.4453,-6.4469,-6.4548,-6.4577,-6.426,-6.426,-6.4259,0,0,-6.3847,-6.386,-6.3906,-6.3976,-6.3995,-6.4068,-6.3962,-6.4043,-6.4097,-6.4011,-6.4118,-6.4124,-6.4154,-6.4286,-6.4343,-6.4295,-6.4558,-6.4471,-6.4486,-6.4491,-6.4565,-6.4595,-6.4622,-6.4269,-6.4267,-6.4266,0,0,-6.4042,-6.406,-6.4161,-6.4184,-6.4216,-6.4204,-6.4229,-6.4247,-6.4248,-6.4355,-6.4293,-6.4357,-6.4464,-6.4488,-6.4514,-6.4725,-6.4673,-6.4745,-6.4864,-6.4942,-6.4967,-6.4989,-6.5063,-6.509,-6.4761,-6.4761,-6.4761,0,-6.4146,-6.4253,-6.4219,-6.4305,-6.4337,-6.4267,-6.4369,-6.4392,-6.4441,-6.4465,-6.4412,-6.4546,-6.4562,-6.4698,-6.475,-6.4774,-6.48,-6.474,-6.4967,-6.4988,-6.5008,-6.5078,-6.5106,-6.477,-6.4769,-6.4768,-6.4767,0,-6.4379,-6.4455,-6.4533,-6.4583,-6.4625,-6.4719,-6.4699,-6.4746,-6.4717,-6.4711,-6.4822,-6.4839,-6.4898,-6.4929,-6.49,-6.5062,-6.5032,-6.4974,-6.4876,-6.5047,-6.5112,-6.5139,-6.4782,-6.4779,-6.4776,-6.4774,0,0,-6.4646,-6.4679,-6.4708,-6.4731,-6.4763,-6.482,-6.4913,-6.4972,-6.5013,-6.5051,-6.5126,-6.5221,-6.5168,-6.5198,-6.5172,-6.5241,-6.5406,-6.5174,-6.5174,-6.5215,-6.5585,-6.5627,-6.5658,-6.5374,-6.5379,-6.5383,-6.5582,0,-6.4839,-6.4997,-6.497,-6.5123,-6.5193,-6.513,-6.521,-6.5239,-6.5238,-6.5297,-6.5295,-6.5363,-6.5289,-6.5307,-6.5372,-6.5372,-6.5479,-6.5358,-6.5442,-6.5446,-6.5434,-6.5693,-6.5736,-6.5923,-6.5608,-6.5612,-6.5615,0,-6.5083,-6.5132,-6.5292,-6.5316,-6.5344,-6.5416,-6.5469,-6.5528,-6.556,-6.5554,-6.5591,-6.5553,-6.5645,-6.5551,-6.5677,-6.5595,-6.5629,-6.5635,-6.5642,-6.5645,-6.5538,-6.5701,-6.5982,-6.6009,-6.5655,-6.5652,-6.5649,0,-6.526,-6.5365,-6.5475,-6.5497,-6.5527,-6.558,-6.5595,-6.5622,-6.566,-6.5708,-6.5732,-6.579,-6.5821,-6.5866,-6.5846,-6.5779,-6.5977,-6.5879,-6.5973,-6.5974,-6.6014,-6.6012,-6.6302,-6.6042,-6.6041,-6.6041,-6.604,0,-6.5476,-6.5576,-6.5555,-6.5622,-6.5734,-6.5704,-6.5815,-6.5822,-6.5848,-6.5916,-6.5865,-6.593,-6.59,-6.5964,-6.5949,-6.6056,-6.6071,-6.6068,-6.6062,-6.6071,-6.6071,-6.609,-6.6075,-6.6048,-6.6047,-6.6045,-6.6044,0,-6.569,-6.568,-6.5795,-6.5816,-6.5824,-6.5905,-6.5922,-6.5986,-6.5983,-6.607,-6.6089,-6.6084,-6.6156,-6.6141,-6.622,-6.621,-6.6344,-6.6324,-6.6333,-6.6327,-6.6421,-6.6412,-6.6732,-6.6772,-6.6488,-6.6491,-6.6493,0,-6.5826,-6.5902,-6.5933,-6.5975,-6.5995,-6.6064,-6.6103,-6.6078,-6.6122,-6.6167,-6.6225,-6.6293,-6.6345,-6.6464,-6.6468,-6.6529,-6.6507,-6.6616,-6.6516,-6.6523,-6.6507,-6.6501,-6.6509,-6.6634,-6.6637,-6.664,-6.6642,0,-6.607,-6.6062,-6.6121,-6.618,-6.6229,-6.6274,-6.6314,-6.6352,-6.6331,-6.6383,-6.6456,-6.6498,-6.658,-6.6648,-6.6706,-6.6721,-6.6679,-6.6675,-6.6699,-6.6707,-6.6709,-6.6707,-6.6384,-6.6666,-6.6664,-6.6662,-6.6661,-6.666,-6.6247,-6.6313,-6.6345,-6.6413,-6.6441,-6.6481,-6.6542,-6.6548,-6.661,-6.6675,-6.6657,-6.6742,-6.6775,-6.6848,-6.6871,-6.6936,-6.6896,-6.6932,-6.694,-6.6949,-6.696,-6.6702,-6.6947,-6.6946,-6.6946,-6.6945,-6.6945,0,-6.6487,-6.6505,-6.6569,-6.6627,-6.6682,-6.664,-6.6683,-6.6731,-6.6806,-6.6841,-6.6896,-6.6982,-6.7049,-6.706,-6.7123,-6.7174,-6.7156,-6.7192,-6.7186,-6.719,-6.6993,-6.6964,-6.7205,-6.7205,-6.7205,-6.7205,-6.7205,-6.7205,-6.6617,-6.6725,-6.6722,-6.6845,-6.6862,-6.6945,-6.6973,-6.701,-6.7038,-6.7137,-6.7193,-6.72,-6.7226,-6.7292,-6.7352,-6.7354,-6.7379,-6.7422,-6.7415,-6.723,-6.7204,-6.7179,-6.7152,-6.7428,-6.7428,-6.7607,-6.7608,-6.761]},{"header":{"parameterUnit":"m.s-1","parameterCategory":1,"la1":30.2991,"la2":30.254,"lo1":-89.0895,"lo2":-89.0444,"dy":0.0017,"dx":0.0017,"nx":28,"ny":28,"refTime":"2023-10-25T21:00:00:Z","depth":0,"parameterNumber":3,"parameterNumberName":"V-component_of_WINDS"},"data":[0,0,0,0,0,0,0,0,0,0,0,0,0,0,0,0,0,0,0,0,0,0,0,0,0,0,0,0,0,0,0,0,0,0,0,0,0,0,0,0,0,0,0,0,0,0,0,0,0,0,0,0,0,0,0,0,0,0,1.6768,1.6768,0,1.6774,1.6774,1.6774,1.6776,1.6776,1.6776,1.6776,1.6777,1.6778,1.6778,0,0,0,0,0,0,0,0,0,0,0,0,0,1.6756,1.6756,1.6768,1.6768,1.6768,1.6774,1.6774,1.6774,1.6776,1.6776,1.6776,1.6776,1.6777,1.6778,1.6778,0,0,0,0,0,0,0,0,0,0,0,0,0,1.6761,1.6756,1.6768,1.677,1.677,1.6774,1.6774,1.6774,1.6776,1.6776,1.6776,1.6776,1.6777,1.6778,1.6778,1.6779,0,0,1.6778,1.6778,0,0,0,0,0,0,0,0,1.6761,1.6762,1.677,1.677,1.677,1.6774,1.6771,1.6776,1.6776,1.6773,1.6776,1.6776,1.6776,1.6776,1.6777,1.6779,1.6779,1.6778,1.6778,1.6778,1.6778,0,0,0,0,0,0,0,1.6761,1.6762,1.677,1.677,1.677,1.677,1.677,1.6772,1.6775,1.6774,1.6774,1.6775,1.6776,1.6777,1.6777,1.6779,1.6778,1.6778,1.6778,1.6778,1.6785,1.6785,0,0,0,0,0,0,1.6761,1.6761,1.677,1.6771,1.6766,1.677,1.6771,1.6773,1.6775,1.6775,1.6775,1.6775,1.6777,1.6777,1.6778,1.6781,1.6778,1.6778,1.6778,1.6785,1.6785,1.6785,0,0,0,0,0,0,1.676,1.6761,1.677,1.6766,1.6767,1.677,1.6773,1.6773,1.6774,1.6776,1.6776,1.6775,1.6777,1.6777,1.678,1.6781,1.6778,1.6778,1.6785,1.6785,1.6785,1.6786,0,0,0,0,0,0,1.676,1.6761,1.6762,1.6766,1.6767,1.6772,1.6773,1.6773,1.6775,1.6775,1.6776,1.6777,1.6777,1.6779,1.678,1.6781,1.6778,1.6785,1.6785,1.6785,1.6786,1.6787,1.6787,0,0,0,0,0,1.6759,1.6761,1.6762,1.6763,1.6769,1.6773,1.6773,1.6775,1.6775,1.6776,1.6777,1.6777,1.6781,1.678,1.678,1.6781,1.6784,1.6785,1.6785,1.6786,1.6786,1.6787,0,0,0,0,0,0,1.6754,1.6761,1.6763,1.6766,1.6769,1.6773,1.6774,1.6775,1.6777,1.6777,1.6778,1.6778,1.6781,1.6781,1.678,1.6784,1.6783,1.6783,1.6783,1.6784,1.6784,1.6784,1.6779,0,0,0,0,0,1.6754,1.6758,1.6763,1.6765,1.6767,1.677,1.6772,1.6773,1.6776,1.6777,1.6778,1.678,1.6782,1.6783,1.6785,1.6787,1.6787,1.6788,1.6788,1.6789,1.6789,1.6791,1.6792,1.6786,1.6786,1.6786,0,0,1.6752,1.6757,1.6758,1.6764,1.6767,1.677,1.6771,1.6774,1.6776,1.6777,1.678,1.6781,1.6783,1.6786,1.6787,1.6786,1.6791,1.6789,1.6789,1.6789,1.6792,1.6792,1.6793,1.6786,1.6786,1.6786,0,0,1.6752,1.6755,1.6758,1.6761,1.6766,1.6769,1.677,1.6775,1.6776,1.678,1.6781,1.6783,1.6786,1.6788,1.6789,1.6793,1.6792,1.6793,1.6794,1.6797,1.6798,1.6798,1.68,1.68,1.6793,1.6793,1.6793,0,1.6748,1.6754,1.6759,1.6763,1.6765,1.6769,1.6772,1.6774,1.6779,1.6781,1.678,1.6786,1.6787,1.6791,1.6793,1.6793,1.6795,1.6792,1.6797,1.6798,1.6798,1.68,1.6801,1.6793,1.6793,1.6793,1.6793,0,1.6751,1.6755,1.6757,1.6764,1.6767,1.677,1.6775,1.6777,1.678,1.6782,1.6786,1.6789,1.6792,1.6793,1.6794,1.6798,1.6798,1.6797,1.6796,1.6799,1.6801,1.6801,1.6794,1.6794,1.6794,1.6794,0,0,1.6744,1.6757,1.6757,1.6761,1.6768,1.6771,1.6775,1.678,1.6783,1.6786,1.679,1.6794,1.6795,1.6796,1.6798,1.68,1.6804,1.68,1.68,1.6801,1.681,1.681,1.681,1.6805,1.6805,1.6805,1.681,0,1.6745,1.6753,1.6759,1.6765,1.6769,1.6774,1.6778,1.6782,1.6786,1.6789,1.6793,1.6796,1.6796,1.6798,1.68,1.6803,1.6806,1.6803,1.6807,1.6807,1.6806,1.6811,1.681,1.6815,1.681,1.681,1.681,0,1.6745,1.6752,1.6759,1.6768,1.677,1.6773,1.6779,1.6783,1.6789,1.6791,1.6795,1.6797,1.6802,1.6801,1.6807,1.6805,1.6808,1.6809,1.681,1.681,1.6809,1.6811,1.6816,1.6817,1.6811,1.6811,1.6811,0,1.6741,1.6751,1.6757,1.676,1.6771,1.6773,1.6777,1.6783,1.6787,1.6792,1.6794,1.6799,1.6802,1.6806,1.681,1.6809,1.6816,1.6815,1.6818,1.6818,1.6818,1.6818,1.6823,1.682,1.682,1.682,1.682,0,1.674,1.6744,1.6756,1.6759,1.6765,1.6771,1.6776,1.678,1.6786,1.6791,1.6795,1.6798,1.6803,1.6808,1.6811,1.6816,1.6817,1.6819,1.682,1.6819,1.6818,1.6819,1.6819,1.682,1.682,1.682,1.682,0,1.6735,1.6743,1.675,1.6761,1.6764,1.6767,1.6776,1.6779,1.6784,1.679,1.6792,1.6798,1.6804,1.6809,1.6816,1.6818,1.6824,1.6824,1.6822,1.6823,1.6825,1.6825,1.6831,1.6833,1.6828,1.6828,1.6828,0,1.6734,1.6738,1.675,1.6754,1.6759,1.6765,1.677,1.6777,1.6782,1.679,1.6793,1.68,1.6805,1.6814,1.682,1.6825,1.6826,1.6828,1.6827,1.6826,1.6827,1.6826,1.6827,1.6828,1.6828,1.6828,1.6828,0,1.6732,1.6736,1.6743,1.6752,1.6758,1.6765,1.6772,1.6775,1.6784,1.6788,1.6796,1.68,1.6809,1.6816,1.6823,1.6826,1.6829,1.6829,1.683,1.6828,1.6827,1.6828,1.6823,1.6828,1.6828,1.6828,1.6828,1.6828,1.6729,1.6733,1.6743,1.6751,1.6758,1.6765,1.677,1.6777,1.6784,1.6792,1.6796,1.6804,1.6811,1.6821,1.6825,1.6831,1.6831,1.6832,1.6832,1.6833,1.6833,1.6827,1.6832,1.6832,1.6832,1.6832,1.6832,0,1.6727,1.6734,1.6742,1.6753,1.676,1.6764,1.6773,1.6778,1.6785,1.6793,1.6799,1.6808,1.6816,1.6822,1.683,1.6833,1.6835,1.6835,1.6835,1.6836,1.6832,1.6831,1.6834,1.6834,1.6834,1.6834,1.6834,1.6834,1.6727,1.6735,1.6741,1.6753,1.676,1.6769,1.6774,1.6781,1.6787,1.6798,1.6805,1.681,1.6817,1.6826,1.6833,1.6835,1.6837,1.6838,1.684,1.6836,1.6836,1.6835,1.6834,1.6838,1.6838,1.6843,1.6843,1.6843]}]]